[Iaude] MPEC E48: 2019 EU [a=2.09,e=0.55,i=4.9,H=25.8]

mpec at mpcdb1.cfa.harvard.edu mpec at mpcdb1.cfa.harvard.edu
Tue Mar 5 18:55:16 EST 2019


M.P.E.C. 2019-E48                                Issued 2019 Mar. 5, 23:51 UT
 
     The Minor Planet Electronic Circulars contain information on unusual
         minor planets and routine data on comets.  They are published
    on behalf of Division F of the International Astronomical Union by the
          Minor Planet Center, Smithsonian Astrophysical Observatory,
                          Cambridge, MA 02138, U.S.A.

             Prepared using the Tamkin Foundation Computer Network

                              MPC at CFA.HARVARD.EDU
            URL https://www.minorplanetcenter.net/    ISSN 1523-6714


                                    2019 EU
 
Observations:
     K19E00U* C2019 03 04.46211809 16 24.39 +47 03 01.5          19.21oVEE048T08
     K19E00U  C2019 03 04.47087409 16 23.75 +47 04 37.5          18.55oVEE048T08
     K19E00U  C2019 03 04.48039609 16 23.28 +47 06 24.9          19.08oVEE048T08
     K19E00U  C2019 03 04.49056109 16 22.70 +47 08 17.1          18.88oVEE048T08
     K19E00U KC2019 03 04.97966009 17 41.34 +48 59 33.2          18.5 GVEE048L01
     K19E00U KC2019 03 04.98482709 17 41.32 +49 00 51.7          18.8 GVEE048L01
     K19E00U KC2019 03 04.98930809 17 41.29 +49 01 59.8          18.7 GVEE048L01
     K19E00U KC2019 03 04.98995109 17 41.30 +49 02 09.6          18.9 GVEE048L01
     K19E00U KC2019 03 04.99137209 17 41.29 +49 02 31.1          19.0 GVEE048L01
     K19E00U KC2019 03 04.99408609 17 41.32 +49 03 12.0          19.1 GVEE048L01
     K19E00U  C2019 03 05.12352 09 18 49.35 +49 39 55.7          18.5 GVEE048I52
     K19E00U  C2019 03 05.12370 09 18 49.33 +49 39 58.5          19.4 GVEE048I52
     K19E00U  C2019 03 05.12389 09 18 49.31 +49 40 02.6          19.2 GVEE048I52
     K19E00U  C2019 03 05.13665509 18 47.19 +49 43 58.6          18.4 GVEE048H01
     K19E00U  C2019 03 05.14180809 18 47.18 +49 45 33.4          18.5 GVEE048H01
     K19E00U  C2019 03 05.15303009 18 47.11 +49 48 59.7          18.6 GVEE048H01
     K19E00U  C2019 03 05.16089209 18 47.00 +49 51 24.4          18.5 GVEE048H01
     K19E00U KC2019 03 05.19726 09 18 38.03 +50 02 05.2          18.1 RqEE048H36
     K19E00U KC2019 03 05.20020 09 18 37.94 +50 02 58.2          18.6 RqEE048H36
     K19E00U KC2019 03 05.20750 09 18 37.71 +50 05 09.6          18.7 RqEE048H36
     K19E00U KC2019 03 05.31383609 18 32.81 +50 36 38.1          18.8 VuEE048H21
     K19E00U KC2019 03 05.31587309 18 32.92 +50 37 14.6          19.0 VuEE048H21
     K19E00U KC2019 03 05.31790609 18 33.01 +50 37 51.2          18.8 VuEE048H21
     K19E00U KC2019 03 05.81237 09 21 40.08 +53 46 28.5          18.5 VtEE048L04
     K19E00U KC2019 03 05.81571 09 21 40.48 +53 48 01.2          18.4 VtEE048L04
     K19E00U KC2019 03 05.81984 09 21 40.94 +53 49 55.1          18.7 VtEE048L04
     K19E00U KC2019 03 05.82221 09 21 43.57 +53 50 44.1          18.0 RoEE048K88
     K19E00U KC2019 03 05.82501 09 21 43.93 +53 52 01.9          18.1 RoEE048K88
     K19E00U KC2019 03 05.82781 09 21 44.26 +53 53 20.3          18.1 RoEE048K88
     K19E00U KC2019 03 05.83862909 21 53.89 +53 58 20.6          18.5 GVEE048587
     K19E00U KC2019 03 05.83936909 21 53.99 +53 58 41.8                VEE048587
     K19E00U KC2019 03 05.84398709 21 54.50 +54 00 52.7                VEE048587
     K19E00U KC2019 03 05.85237 09 21 54.98 +54 05 11.7          18.5  VEE048104
     K19E00U KC2019 03 05.85536 09 21 55.32 +54 06 37.0          18.5  VEE048104
     K19E00U KC2019 03 05.85700 09 21 53.00 +54 07 11.2          18.7 GVEE048595
     K19E00U KC2019 03 05.85835 09 21 55.64 +54 08 02.2          18.4  VEE048104
     K19E00U KC2019 03 05.85905 09 21 53.12 +54 08 08.5          19.0 GVEE048595
     K19E00U KC2019 03 05.86316 09 21 53.64 +54 10 05.9          18.6 GVEE048595
     K19E00U KC2019 03 05.86510 09 21 58.96 +54 11 06.6          18.6 VqEE048C77
     K19E00U KC2019 03 05.86522 09 21 53.95 +54 11 04.5          18.4 GVEE048595
     K19E00U KC2019 03 05.86747 09 21 59.22 +54 12 14.3          18.4 VqEE048C77
     K19E00U KC2019 03 05.86994 09 21 59.52 +54 13 25.4          18.7 VqEE048C77
     K19E00U KC2019 03 05.93139409 22 07.57 +54 43 12.5          18.2 GVEE048C95
     K19E00U KC2019 03 05.93892809 22 08.41 +54 46 53.9          18.5 GVEE048C95
     K19E00U KC2019 03 05.94646709 22 09.26 +54 50 35.6          18.2 GVEE048C95
 
Observer details:
104 San Marcello Pistoiese.  Observers P. Bacci, M. Maestripieri.  Measurers
    P. Bacci, L. Tesi, G. Fagioli.  0.60-m reflector + CCD.
587 Sormano.  Observers A. Fumagalli, A. Butti, L. Iachelini, A. Mahu,
    L. Molteni.  Measurer L. Iachelini.  0.5-m f/6.8 reflector + CCD.
595 Farra dIsonzo.  Observers E. Pettarin, F. Piani.  Measurer
    E. Pettarin.  0.61-m f/4.5 reflector + CCD.
C77 Bernezzo Observatory.  Observer A. Mantero.  0.25-m f/4.0 reflector + CCD.
C95 SATINO Remote Observatory, Haute Provence.  Observer J. Jahn.  0.60-m
    f/3.2 Newtonian reflector + CCD.
H01 Magdalena Ridge Observatory, Socorro.  Observers W. H. Ryan, E. V. Ryan.
    Measurer W. H. Ryan.  2.4-m f/8.9 Ritchey-Chretien + CCD.
H21 Astronomical Research Observatory, Westfield.  Observer R. Holmes.
    Measurers S. Foglia, L. Buzzi, T. Linder, R. Holmes.  0.76-m f/3.0
    astrograph + CCD.
H36 Sandlot Observatory, Scranton.  Observer G. Hug.  0.56-m reflector + CCD.
I52 Steward Observatory, Mt. Lemmon Station.  Observers D. C. Fuls,
    T. A. Pruyne.  Measurers B. M. Africano, E. J. Christensen, G. A. Farneth,
    D. C. Fuls, A. R. Gibbs, A. D. Grauer, H. Groeller, R. A. Kowalski,
    S. M. Larson, G. J. Leonard, T. A. Pruyne, R. L. Seaman, F. C. Shelly.
    1.0-m reflector + CCD.
K88 GINOP-KHK, Piszkesteto.  Observer K. Sarneczky.  0.60-m Schmidt + CCD.
L01 Visnjan Observatory, Tican.  Observer K. Korlevic.  1.0-m f/2.9 reflector
    + CCD.
L04 ROASTERR-1 Observatory, Cluj-Napoca.  Observer L. Hudin.  0.3-m f/5
    reflector + CCD.
T08 ATLAS-MLO, Mauna Loa.  Observers L. Denneau, J. Tonry, A. Heinze,
    H. Weiland, H. Flewelling.  Measurers L. Denneau, J. Tonry, A. Heinze,
    H. Weiland, H. Flewelling, B. Stalder, A. Fitzsimmons, D. Young,
    N. Erasmus.  0.5-m reflector + CCD.
 
Orbital elements:
2019 EU                                                  Earth MOID = 0.0052 AU
Epoch 2019 Apr. 27.0 TT = JDT 2458600.5                 MPC
M   8.00580              (2000.0)            P               Q
n   0.32601693     Peri.  209.66577     -0.93901609     +0.34357612
a   2.0907845      Node   350.39663     -0.29622535     -0.82931108
e   0.5534149      Incl.    4.91414     -0.17464054     -0.44067968
P   3.02           H   25.8           G   0.15           U   4
Residuals in seconds of arc
190304 T08  0.2-  0.6+    190305 H01  0.3+  0.1-    190305 587  0.2+  0.0
190304 T08  0.6-  0.9-    190305 H01  0.3+  0.1-    190305 587  0.7-  0.2-
190304 T08  0.6+  0.6+    190305 H36  0.2+  0.6+    190305 104  0.2+  0.3-
190304 T08  0.1+  0.1+    190305 H36  0.2+  0.6+    190305 104  0.2+  0.2-
190304 L01  0.1+  0.8-    190305 H36  0.3+  0.3+    190305 595  0.5+  0.7+
190304 L01  0.1+  0.4-    190305 H21  0.2-  0.0     190305 104  0.1+  0.3-
190304 L01  0.2-  0.0     190305 H21  0.1-  0.1-    190305 595  0.5-  0.3-
190304 L01  0.1-  0.0     190305 H21  0.3-  0.0     190305 595  0.0   0.3+
190304 L01  0.2-  0.1+    190305 L04  0.0   0.2+    190305 C77  0.3+  0.2+
190304 L01  0.0   0.1-    190305 L04  0.1+  0.4+    190305 595  0.7+  0.2+
190305 I52  0.4+  0.0     190305 L04  0.1-  0.2-    190305 C77  0.1+  0.2-
190305 I52  0.2+  0.5-    190305 K88  0.0   0.2+    190305 C77  0.3+  0.0
190305 I52  0.1-  0.1+    190305 K88  0.1+  0.0     190305 C95  0.2-  0.3-
190305 H01  0.4+  0.0     190305 K88  0.1-  0.3+    190305 C95  0.0   0.0
190305 H01  0.3+  0.1+    190305 587  0.2+  0.2-    190305 C95  0.1+  0.1-

Ephemeris:
2019 EU                  a,e,i = 2.09, 0.55, 5                   q = 0.9337
Date    TT    R. A. (2000) Decl.     Delta      r     Elong.  Phase     V
2019 02 03    09 18 12.4 +32 51 40   0.2141  1.1925   163.6    13.5    23.6
...
2019 02 18    09 14 39.7 +35 51 11   0.1119  1.0896   153.6    23.8    22.3
...
2019 02 26    09 13 27.8 +38 36 56   0.06224 1.0417   145.3    32.8    21.2
...
2019 03 04    09 15 56.8 +45 37 44   0.02614 1.0102   135.4    43.5    19.6
2019 03 05    09 17 59.7 +49 04 45   0.02027 1.0054   132.1    47.0    19.1
2019 03 06    09 22 40.1 +55 15 23   0.01453 1.0007   126.7    52.6    18.5
...
2019 03 12    21 05 30.3 -21 34 08   0.02325 0.9754    38.6   140.5    24.5
...
2019 03 20    21 10 46.5 -30 07 47   0.07134 0.9505    49.1   127.6    25.4
...
2019 04 04    21 22 09.4 -31 15 11   0.1622  0.9339    61.7   109.5    25.8

A. U. Tomatic                (C) Copyright 2019 MPC           M.P.E.C. 2019-E48



More information about the Iaude mailing list